Résultats de la compétition "Chpt de Ligue Moyenne Distance AZ et PR Gréolières" du 16-05-2010 organisée par le club 0615
     
  Télécharger le fichier CSV.  
     
     

 Circuit "Circuit A"

Licence Nom Prénom Temps CN
précédent
Score sur
la course
Différence
6613SCHIAVOEmilien0:41:3973026841-461
1175PUECHJ-Baptiste0:44:5370406348-692
4033ESTELAOlivier0:45:2558946274+380
1593DELENNEPierre0:45:5661436203+60
18742PETITGOUNELLEMathieu0:46:3355886121+533
13020REVEILLONAnthony0:51:2061195550-569
6566GIBIATXavier0:51:3948635516+653
12231ELIASPierre0:51:5162575495-762
4968BARBIERVincent0:51:5752905485+195
15855MUSCARNERALaurent0:52:1648985451+553
16632KASTENSSONJens0:55:5648145094+280
4159RICHAUDAdrien1:00:5736484675+1027
11919REMOUETMichel1:06:4453894270-1119
20685VINCENTSébastien1:14:2436193830+211
17878FOREYThomas1:15:5803751N/A
13190LAGETPatrick1:16:4831033710+607
20888CALANDOAntoine1:19:39N/A3577N/A
5466GAULTIERChristophe1:21:0943053511-794
787MASONIBruno1:21:1445543507-1047
15691DABINStephane1:32:0141433096-1047
12994D'ADDETTAPhilippe1:32:2733003082-218
13796LEPRETREMaximilien1:32:5028353069+234
20922BEAUDREYVincent1:34:20N/A3020N/A
21251DALLEGilles1:34:2703017N/A
1592DELENNEMatthieu1:37:5938562908-948
19112DRINGuillaume2:04:0527452296-449
20095SCIORAPierre2:19:0245402049-2491
18954BEGARIEJérômeN/AN/A0N/A
11047ANFOSSIDenisN/A54190-5419
23345CHABANASStephaneN/AN/A0N/A
16162THOMASSONYannN/AN/A0N/A
20678VAN KAAMYoanN/A00N/A

  Indice de confiance du circuit (moyenne des différences entre CN et score sur la course des 3 à 10 premiers) : 304




 Circuit "Circuit B"

Licence Nom Prénom Temps CN
précédent
Score sur
la course
Différence
16550PAGEQuentin0:36:3856015659+58
16714MONCLARDJerome0:40:4942425079+837
7256PIBAROTSteve0:41:45N/A4966N/A
8592SARRATChristophe0:43:4104746N/A
11243PARPALEric0:48:2838874277+390
11829DANIELEric0:54:0444663834-632
20062TÖRMÄMiro0:54:2331493812+663
6896LOPEZSerge0:54:4839393783-156
19544BOURDARIEPascal0:55:0546803764-916
64FORMAGilbert0:58:04N/A3570N/A
16931BOYERPatrick0:59:4630563469+413
17250BOURGEOISGilles1:06:02N/A3139N/A
11332GUETINFrancois1:06:4035403110-430
18410LAVILLEXavier1:08:0435323046-486
12837ANGLARETPhilippe1:08:2635943029-565
20218MULDERSebastiaan1:10:3525342937+403
17790PICAZOJ-Jacques1:13:4434172812-605
11174AZOCARArnaud1:15:0328392762-77
16590BERRIENOlivier1:21:3729112540-371
19712SANCHEZ SEGURAManuel1:25:3438812423-1458
22653AMROUCHEDidier1:27:14N/A2377N/A
20855COLINJean-christophe1:31:4040762262-1814
22865SAUZADESimon1:58:19N/A1752N/A
19543VASQUEZClaude2:04:5119841660-324
17882ZAHNJ-Marie2:11:1419611580-381
21138KAUSKOTHélène2:20:2023711477-894
16448VARELAPatrickN/A26510-2651
22657GUYONEricN/A00N/A

  Indice de confiance du circuit (moyenne des différences entre CN et score sur la course des 3 à 10 premiers) : 386




 Circuit "Circuit Bbis"

Licence Nom Prénom Temps CN
précédent
Score sur
la course
Différence
2782REMOUETM-Pierre0:51:0843714386+15
22323REISCHUKRebecca0:52:4504251N/A
1591DELENNEBlandine0:55:1939114054+143
13799KROLHelene1:07:3037813322-459
11495DELENNEA-Francoise1:07:5537093302-407
13850CAGNARDNathalie1:09:4332673217-50
4158RICHAUDA-Sophie1:10:1331413194+53
16934SINICOSeverine1:10:5231793164-15
12731MUSCARNERASandy1:14:3722553005+750
20856MAMMAUXAnne1:17:1429702903-67
15199ALLINCamille1:29:2925272506-21
16589BERRIENIsabelle1:30:5726072466-141
1152DELIFrancoise1:42:0438722197-1675
22947STONEFrances1:59:00N/A1884N/A
3324MASONIBeatrice2:18:1629741622-1352

  Indice de confiance du circuit (moyenne des différences entre CN et score sur la course des 3 à 10 premiers) : 218




 Circuit "Circuit C"

Licence Nom Prénom Temps CN
précédent
Score sur
la course
Différence
3546GIBIATFrederic0:44:0146134099-514
1612MARCONSylvie0:44:0931664086+920
1584BOENSCHEric0:47:0534273832+405
20381CHAILLANCaroline0:47:3434963793+297
20484KASTENSSONEllen0:50:1730583588+530
14856MONCLARDGuillaume0:50:4630453554+509
16933SINICOPatrick0:51:2525733509+936
10863DEJARDINEmilie0:51:4828123483+671
5168JACQUESSONGilles0:51:5833523472+120
480RIDEAUPhilippe0:53:0329803401+421
17791PICAZOSilvain0:55:0141883279-909
17792PICAZOCamille0:55:2131513260+109
3874VISCAPaul0:57:3025913138+547
20562DESPLANQUESDenis0:57:4731713122-49
21956SAUZADEEric0:58:0403107N/A
16001ROUXAgnes0:58:1925463094+548
12026DEPHILIPPOJ-Luc0:58:4922003067+867
10979LEMAIRENathalie1:00:1428452995+150
19083FERRIERJoël1:04:2926772798+121
4617HEYRIESRichard1:04:4935392784-755
11321GRAUERJ-Luc1:07:3743852668-1717
10862HOULLIERIsabelle1:08:1835652642-923
19335ELIASLaurence1:08:4022522627+375
1746GEHINChristine1:09:2833002597-703
3421RICHARDChristian1:10:2332502563-687
17789PICAZOSophie1:10:5943172542-1775
20686ROIRobert1:13:5426062441-165
22993KASTENSSONLotta1:14:23N/A2426N/A
13133RIBAUTJ-Paul1:15:34N/A2388N/A
22020COLINMarie-noel1:16:3621802355+175
18411LAVILLEMireille1:17:1427782336-442
17799COQUINDaniel1:29:0802024N/A
13193D'ADDETTAVeronique1:30:1820311998-33
1156DELIMathilde1:30:2638731995-1878
6324PAILHEIsabelle1:34:2123171912-405
20559MULDERAlexander1:37:23N/A1853N/A
1611LOPEZBernard1:39:0425391821-718
22770BERTONSandrine1:42:02N/A1768N/A
15200MARGOTTEAUPhilippe1:45:2225821712-870
19376PAPURELLOCorinne1:57:5916101529-81
23316GREENLiamN/AN/A0N/A
16496DETINGUYMatthieuN/A13900-1390
18072SARRATCamilleN/AN/A0N/A
20469BEYLSFrançoisN/AN/A0N/A
17813ALIANEIdrissN/A13460-1346
14439BARREDALaureN/A32400-3240
22325BREGEONFabienneN/A00N/A

  Indice de confiance du circuit (moyenne des différences entre CN et score sur la course des 3 à 10 premiers) : 222




 Circuit "Circuit D"

Licence Nom Prénom Temps CN
précédent
Score sur
la course
Différence
1635MAGDINIERGilles0:36:3936314260+629
476MATHIEUMaurice0:38:1538584082+224
19103SEGONDYPierre0:40:2131703869+699
1739CAMPOSJ-Pierre0:40:3944133841-572
4272CLERCAnne0:44:4337493491-258
13110MARGOTTEAUGhislaine0:45:3628683424+556
1585BOENSCHFrancoise0:47:4723913267+876
11322GRAUERIsabelle0:50:4627033075+372
14253PALUDJoel0:51:2520983036+938
16975JOOSSophie0:52:38N/A2966N/A
1605LEPOUPONAndre1:00:2339912586-1405
22897DENAIXClaude1:00:32N/A2579N/A
2181PROSTDaniel1:01:0227162558-158
10787KOBRYNMarc1:01:0921982553+355
1093ARNAUDSerge1:03:2637002461-1239
19382ASSANTEGerard1:04:0730722435-637
20687ROIGhislaine1:04:3020382421+383
3547GIBIATDanielle1:05:1333442394-950
14235ANFOSSIGiuseppe1:07:2038432319-1524
1119GINESTECorinne1:18:1621781995-183
19461RAMSEYERRobert1:19:0221311975-156
1416CHAVERNACBruno1:21:4819681909-59
1599JOUVEColette1:22:5821041882-222
9059GUINETLaurence1:25:3516501824+174
23089STONEGiles1:29:16N/A1749N/A
17800COQUINNathalie1:35:03N/A1643N/A
13191D'ADDETTACecile1:37:4624671597-870
16499PEREIRAAimie1:55:1214151355-60
22956DA MAIAAlvaro2:00:55N/A1291N/A

  Indice de confiance du circuit (moyenne des différences entre CN et score sur la course des 3 à 10 premiers) : 380




 Circuit "Circuit E"

Licence Nom Prénom Temps CN
précédent
Score sur
la course
Différence
14950SOGNOMartin0:18:1234203905+485
11904DELENNEWilliam0:18:4841653780-385
10384DELENNEAdrien0:19:3948113617-1194
16547LAVILLEJulien0:22:3534073147-260
16555PICAZOMarie0:22:4629273121+194
18257MAGNONRobin0:24:4028792881+2
16137ELIASPauline0:26:2023432699+356
13800DELENNECamillia0:27:1024552616+161
18100BEYLSNicolas0:29:3834212398-1023
13877PIBAROTApolline0:41:50N/A1699N/A
16364BRUNETMarie-Line0:42:56N/A1655N/A
6056DOOMMary-Laurie0:43:1116681646-22
20487MORELLouise0:49:276271437+810
2182PROSTGisele0:58:5728271206-1621
20506SWINDELLFraser1:04:4715941097-497
20486DA MAIAMailys1:10:3001008N/A
1750GEHINMonique1:11:331669993-676
22259CAUOriane1:12:55665975+310
22036TÖRMÄKamilla1:26:49N/A819N/A
18765BERRIENColine1:50:11818645-173
22866CABANISNadineN/AN/A0N/A
1417CHAVERNACChantalN/A9540-954
20470BEYLSGwenaelleN/AN/A0N/A

  Indice de confiance du circuit (moyenne des différences entre CN et score sur la course des 3 à 10 premiers) : 340




 Circuit "Circuit F"

Licence Nom Prénom Temps CN
précédent
Score sur
la course
Différence
18412LAVILLEAdrien0:23:3419322712+780
17763ELIASGuilhem0:29:3227372164-573
17030DELENNEJoanna0:30:0620202123+103
18249DELENNETommy0:30:4217822082+300
19146GUETINAmbre0:31:3515132023+510
20875JOLYBlandine0:32:5701940N/A
19269BEYLSMathilde0:34:1318791868-11
17881SANCHEZXan0:36:4725391737-802
20616KASTENSSONHedda0:40:2316991583-116
22629COLINMaËlys1:14:34N/A857N/A
22322PEREIRAMaxime1:19:29N/A804N/A
22655AMROUCHEClément1:27:54N/A727N/A

  Indice de confiance du circuit (moyenne des différences entre CN et score sur la course des 3 à 10 premiers) : 620






 Retour